{"data":{"norad_id":58663,"epoch":"2026-05-25T04:41:19.510944Z","epoch_age_seconds":61280,"freshness":"FRESH","line1":"1 58663U 23208D   26145.19536471  .00007557  00000+0  25734-3 0  9994","line2":"2 58663  97.4470 261.3430 0005027  74.5053 285.6742 15.30679468133817","mean_motion":15.30679468,"eccentricity":0.0005027,"inclination_deg":97.447,"raan_deg":261.343,"arg_perigee_deg":74.5053,"mean_anomaly_deg":285.6742,"bstar":0.00025734,"rev_number":13381,"period_min":94.075868273161,"perigee_km":470.33937749874,"apogee_km":477.22829870937,"semimajor_km":6851.9208381041,"source":"CELESTRAK","updated_at":"2026-05-25T13:38:12.259534Z"}}